| time (UTC) | temp F | wind direction | speed knots | gust knots | rain 1hr in | rain 24hr in | rain mn in | humidity % | barometer mb |
| 20260507021411 | 45 | 270 | 1.7 | 2.6 | 0.00 | 0.00 | 0.00 | 77 | 1009.3 |
| 20260507020908 | 45 | 270 | 1.7 | 5.2 | 0.00 | 0.00 | 0.00 | 77 | 1009.3 |
| 20260507020902 | 45 | 270 | 1.7 | 5.2 | 0.00 | 0.00 | 0.00 | 77 | 1009.3 |
| 20260507020359 | 45 | 270 | 0.9 | 2.6 | 0.00 | 0.00 | 0.00 | 77 | 1009.2 |
| 20260507020353 | 45 | 270 | 0.9 | 2.6 | 0.00 | 0.00 | 0.00 | 77 | 1009.2 |
| 20260507015851 | 45 | 270 | 0.9 | 1.7 | 0.00 | 0.00 | 0.00 | 77 | 1009.2 |
| 20260507015844 | 45 | 270 | 0.9 | 1.7 | 0.00 | 0.00 | 0.00 | 77 | 1009.2 |
| 20260507015342 | 46 | 270 | 0.9 | 1.7 | 0.00 | 0.00 | 0.00 | 77 | 1009.3 |
| 20260507015336 | 46 | 270 | 0.9 | 1.7 | 0.00 | 0.00 | 0.00 | 77 | 1009.3 |
| 20260507014833 | 46 | 270 | 0.0 | 0.9 | 0.00 | 0.00 | 0.00 | 77 | 1009.4 |
| 20260507014827 | 46 | 270 | 0.0 | 0.9 | 0.00 | 0.00 | 0.00 | 77 | 1009.4 |
| 20260507013816 | 46 | 270 | 0.9 | 0.9 | 0.00 | 0.00 | 0.00 | 77 | 1009.5 |
| 20260507013809 | 46 | 270 | 0.9 | 0.9 | 0.00 | 0.00 | 0.00 | 77 | 1009.5 |
| 20260507013308 | 46 | 270 | 0.9 | 1.7 | 0.00 | 0.00 | 0.00 | 77 | 1009.4 |
| 20260507013300 | 46 | 270 | 0.9 | 1.7 | 0.00 | 0.00 | 0.00 | 77 | 1009.4 |
| 20260507012758 | 46 | 270 | 0.9 | 0.9 | 0.00 | 0.00 | 0.00 | 77 | 1009.3 |
| 20260507012752 | 46 | 270 | 0.9 | 0.9 | 0.00 | 0.00 | 0.00 | 77 | 1009.3 |
| 20260507012243 | 46 | 270 | 0.9 | 1.7 | 0.00 | 0.00 | 0.00 | 77 | 1009.3 |
| 20260507011734 | 46 | 270 | 0.9 | 0.9 | 0.00 | 0.00 | 0.00 | 77 | 1009.2 |
| 20260507011232 | 46 | 270 | 0.9 | 1.7 | 0.00 | 0.00 | 0.00 | 77 | 1009.0 |
| 20260507011225 | 46 | 270 | 0.9 | 1.7 | 0.00 | 0.00 | 0.00 | 77 | 1009.0 |
| 20260507010717 | 46 | 270 | 0.9 | 1.7 | 0.00 | 0.00 | 0.00 | 77 | 1008.9 |
| 20260507010208 | 46 | 270 | 0.9 | 1.7 | 0.00 | 0.00 | 0.00 | 78 | 1008.9 |
| 20260507005705 | 46 | 270 | 0.9 | 1.7 | 0.00 | 0.00 | 0.00 | 78 | 1008.8 |
| 20260507005659 | 46 | 270 | 0.9 | 1.7 | 0.00 | 0.00 | 0.00 | 78 | 1008.8 |
| 20260507005150 | 46 | 270 | 0.9 | 2.6 | 0.00 | 0.00 | 0.00 | 78 | 1008.9 |
| 20260507004642 | 46 | 270 | 0.9 | 1.7 | 0.00 | 0.00 | 0.00 | 78 | 1008.9 |
| 20260507004149 | 46 | 270 | 0.9 | 2.6 | 0.00 | 0.00 | 0.00 | 78 | 1008.8 |
| 20260507004139 | 46 | 270 | 0.9 | 2.6 | 0.00 | 0.00 | 0.00 | 78 | 1008.8 |
| 20260507004133 | 46 | 270 | 0.9 | 2.6 | 0.00 | 0.00 | 0.00 | 78 | 1008.8 |
| 20260507003630 | 46 | 270 | 1.7 | 2.6 | 0.00 | 0.00 | 0.00 | 78 | 1008.6 |
| 20260507003624 | 46 | 270 | 1.7 | 2.6 | 0.00 | 0.00 | 0.00 | 78 | 1008.6 |
| 20260507003115 | 46 | 270 | 1.7 | 3.5 | 0.00 | 0.00 | 0.00 | 78 | 1008.5 |
| 20260507002607 | 46 | 270 | 1.7 | 3.5 | 0.00 | 0.00 | 0.00 | 78 | 1008.4 |
| 20260507002058 | 46 | 270 | 1.7 | 2.6 | 0.00 | 0.00 | 0.00 | 78 | 1008.5 |
| 20260507001549 | 46 | 270 | 1.7 | 3.5 | 0.00 | 0.00 | 0.00 | 78 | 1008.7 |
| 20260507001046 | 46 | 270 | 1.7 | 3.5 | 0.00 | 0.00 | 0.00 | 78 | 1008.6 |
| 20260507001040 | 46 | 270 | 1.7 | 3.5 | 0.00 | 0.00 | 0.00 | 78 | 1008.6 |
| 20260507000531 | 46 | 270 | 1.7 | 2.6 | 0.00 | 0.00 | 0.00 | 78 | 1008.7 |
| 20260507000023 | 46 | 270 | 1.7 | 2.6 | 0.00 | 0.00 | 0.00 | 78 | 1008.7 |
| 20260506235521 | 46 | 270 | 1.7 | 4.3 | 0.00 | 0.00 | 0.00 | 78 | 1008.8 |
| 20260506235514 | 46 | 270 | 1.7 | 4.3 | 0.00 | 0.00 | 0.00 | 78 | 1008.8 |
| 20260506235012 | 46 | 270 | 1.7 | 3.5 | 0.00 | 0.00 | 0.00 | 78 | 1008.8 |
| 20260506235005 | 46 | 270 | 1.7 | 3.5 | 0.00 | 0.00 | 0.00 | 78 | 1008.8 |
| 20260506234503 | 46 | 270 | 1.7 | 3.5 | 0.00 | 0.00 | 0.00 | 78 | 1008.9 |
| 20260506234456 | 46 | 270 | 1.7 | 3.5 | 0.00 | 0.00 | 0.00 | 78 | 1008.9 |
| 20260506233954 | 46 | 270 | 1.7 | 3.5 | 0.00 | 0.00 | 0.00 | 78 | 1009.0 |
| 20260506233947 | 46 | 270 | 1.7 | 3.5 | 0.00 | 0.00 | 0.00 | 78 | 1009.0 |
| 20260506233445 | 46 | 270 | 1.7 | 3.5 | 0.00 | 0.00 | 0.00 | 78 | 1009.0 |
| 20260506233439 | 46 | 270 | 1.7 | 3.5 | 0.00 | 0.00 | 0.00 | 78 | 1009.0 |
| 20260506232930 | 47 | 270 | 2.6 | 3.5 | 0.00 | 0.00 | 0.00 | 78 | 1009.0 |
| 20260506231919 | 47 | 270 | 1.7 | 2.6 | 0.00 | 0.00 | 0.00 | 77 | 1009.3 |
| 20260506231912 | 47 | 270 | 1.7 | 2.6 | 0.00 | 0.00 | 0.00 | 77 | 1009.3 |
| 20260506231410 | 47 | 270 | 1.7 | 2.6 | 0.00 | 0.00 | 0.00 | 77 | 1009.1 |
| 20260506231404 | 47 | 270 | 1.7 | 2.6 | 0.00 | 0.00 | 0.00 | 77 | 1009.1 |
| 20260506230855 | 47 | 270 | 1.7 | 3.5 | 0.00 | 0.00 | 0.00 | 77 | 1009.0 |
| 20260506230352 | 47 | 270 | 1.7 | 3.5 | 0.00 | 0.00 | 0.00 | 77 | 1009.1 |
| 20260506230346 | 47 | 270 | 1.7 | 3.5 | 0.00 | 0.00 | 0.00 | 77 | 1009.1 |
| 20260506225843 | 47 | 270 | 2.6 | 4.3 | 0.00 | 0.00 | 0.00 | 77 | 1009.0 |
| 20260506225837 | 47 | 270 | 2.6 | 4.3 | 0.00 | 0.00 | 0.00 | 77 | 1009.0 |
| 20260506225335 | 47 | 270 | 1.7 | 4.3 | 0.00 | 0.00 | 0.00 | 76 | 1009.0 |
| 20260506225328 | 47 | 270 | 1.7 | 4.3 | 0.00 | 0.00 | 0.00 | 76 | 1009.0 |
| 20260506224826 | 48 | 270 | 1.7 | 2.6 | 0.00 | 0.00 | 0.00 | 76 | 1008.9 |
| 20260506224820 | 48 | 270 | 1.7 | 2.6 | 0.00 | 0.00 | 0.00 | 76 | 1008.9 |
| 20260506224318 | 48 | 270 | 1.7 | 2.6 | 0.00 | 0.00 | 0.00 | 76 | 1008.8 |
| 20260506224311 | 48 | 270 | 1.7 | 2.6 | 0.00 | 0.00 | 0.00 | 76 | 1008.8 |
| 20260506223259 | 48 | 270 | 1.7 | 3.5 | 0.00 | 0.00 | 0.00 | 76 | 1008.7 |
| 20260506223253 | 48 | 270 | 1.7 | 3.5 | 0.00 | 0.00 | 0.00 | 76 | 1008.7 |
| 20260506222242 | 47 | 270 | 1.7 | 2.6 | 0.00 | 0.00 | 0.00 | 76 | 1008.5 |
| 20260506222236 | 47 | 270 | 1.7 | 2.6 | 0.00 | 0.00 | 0.00 | 76 | 1008.5 |
| 20260506221733 | 47 | 270 | 0.9 | 1.7 | 0.00 | 0.00 | 0.00 | 75 | 1008.4 |
| 20260506221727 | 47 | 270 | 0.9 | 1.7 | 0.00 | 0.00 | 0.00 | 75 | 1008.4 |
| 20260506220715 | 47 | 270 | 1.7 | 1.7 | 0.00 | 0.00 | 0.00 | 75 | 1008.3 |
| 20260506220709 | 47 | 270 | 1.7 | 1.7 | 0.00 | 0.00 | 0.00 | 75 | 1008.3 |
| 20260506220444 | 47 | 270 | 1.7 | 2.6 | 0.00 | 0.00 | 0.00 | 75 | 1008.2 |
| 20260506220200 | 47 | 270 | 1.7 | 2.6 | 0.00 | 0.00 | 0.00 | 75 | 1008.2 |
| 20260506215658 | 47 | 270 | 1.7 | 1.7 | 0.00 | 0.00 | 0.00 | 75 | 1008.2 |
| 20260506215652 | 47 | 270 | 1.7 | 1.7 | 0.00 | 0.00 | 0.00 | 75 | 1008.2 |
| 20260506215149 | 47 | 270 | 1.7 | 2.6 | 0.00 | 0.00 | 0.00 | 75 | 1008.1 |
| 20260506215143 | 47 | 270 | 1.7 | 2.6 | 0.00 | 0.00 | 0.00 | 75 | 1008.1 |
| 20260506214640 | 46 | 270 | 1.7 | 1.7 | 0.00 | 0.00 | 0.00 | 75 | 1008.1 |
| 20260506214634 | 46 | 270 | 1.7 | 1.7 | 0.00 | 0.00 | 0.00 | 75 | 1008.1 |
| 20260506214132 | 46 | 270 | 1.7 | 3.5 | 0.00 | 0.00 | 0.00 | 75 | 1008.2 |
| 20260506214125 | 46 | 270 | 1.7 | 3.5 | 0.00 | 0.00 | 0.00 | 75 | 1008.2 |
| 20260506213623 | 46 | 270 | 1.7 | 3.5 | 0.00 | 0.00 | 0.00 | 75 | 1008.2 |
| 20260506213616 | 46 | 270 | 1.7 | 3.5 | 0.00 | 0.00 | 0.00 | 75 | 1008.2 |
| 20260506213114 | 46 | 270 | 2.6 | 2.6 | 0.00 | 0.00 | 0.00 | 75 | 1008.2 |
| 20260506213108 | 46 | 270 | 2.6 | 2.6 | 0.00 | 0.00 | 0.00 | 75 | 1008.2 |
| 20260506212559 | 46 | 270 | 2.6 | 3.5 | 0.00 | 0.00 | 0.00 | 75 | 1008.1 |
| 20260506212056 | 46 | 270 | 1.7 | 2.6 | 0.00 | 0.00 | 0.00 | 75 | 1008.1 |
| 20260506212050 | 46 | 270 | 1.7 | 2.6 | 0.00 | 0.00 | 0.00 | 75 | 1008.1 |
| 20260506211548 | 46 | 270 | 1.7 | 3.5 | 0.00 | 0.00 | 0.00 | 74 | 1008.1 |
| 20260506211541 | 46 | 270 | 1.7 | 3.5 | 0.00 | 0.00 | 0.00 | 74 | 1008.1 |
| 20260506211039 | 46 | 270 | 1.7 | 2.6 | 0.00 | 0.00 | 0.00 | 75 | 1008.2 |
| 20260506211033 | 46 | 270 | 1.7 | 2.6 | 0.00 | 0.00 | 0.00 | 75 | 1008.2 |
| 20260506210524 | 46 | 270 | 1.7 | 2.6 | 0.00 | 0.00 | 0.00 | 75 | 1008.0 |
| 20260506210021 | 46 | 270 | 1.7 | 3.5 | 0.00 | 0.00 | 0.00 | 75 | 1008.0 |
| 20260506210015 | 46 | 270 | 1.7 | 3.5 | 0.00 | 0.00 | 0.00 | 75 | 1008.0 |
| 20260506205513 | 46 | 270 | 2.6 | 3.5 | 0.00 | 0.00 | 0.00 | 75 | 1008.2 |
| 20260506205506 | 46 | 270 | 2.6 | 3.5 | 0.00 | 0.00 | 0.00 | 75 | 1008.2 |
| 20260506205004 | 46 | 270 | 1.7 | 3.5 | 0.00 | 0.00 | 0.00 | 75 | 1008.2 |
| 20260506204957 | 46 | 270 | 1.7 | 3.5 | 0.00 | 0.00 | 0.00 | 75 | 1008.2 |
| 20260506204452 | 46 | 270 | 1.7 | 2.6 | 0.00 | 0.00 | 0.00 | 75 | 1008.2 |
| 20260506204449 | 46 | 270 | 1.7 | 2.6 | 0.00 | 0.00 | 0.00 | 75 | 1008.2 |
| 20260506203946 | 46 | 270 | 1.7 | 3.5 | 0.00 | 0.00 | 0.00 | 74 | 1008.3 |
| 20260506203940 | 46 | 270 | 1.7 | 3.5 | 0.00 | 0.00 | 0.00 | 74 | 1008.3 |
| 20260506203437 | 46 | 270 | 1.7 | 2.6 | 0.00 | 0.00 | 0.00 | 75 | 1008.2 |
| 20260506203431 | 46 | 270 | 1.7 | 2.6 | 0.00 | 0.00 | 0.00 | 75 | 1008.2 |
| 20260506202929 | 46 | 270 | 1.7 | 3.5 | 0.00 | 0.00 | 0.00 | 75 | 1008.3 |
| 20260506202922 | 46 | 270 | 1.7 | 3.5 | 0.00 | 0.00 | 0.00 | 75 | 1008.3 |
| 20260506202420 | 46 | 270 | 1.7 | 2.6 | 0.00 | 0.00 | 0.00 | 75 | 1008.3 |
| 20260506202414 | 46 | 270 | 1.7 | 2.6 | 0.00 | 0.00 | 0.00 | 75 | 1008.3 |
| 20260506201905 | 46 | 270 | 1.7 | 3.5 | 0.00 | 0.00 | 0.00 | 75 | 1008.2 |
| 20260506201402 | 47 | 270 | 1.7 | 3.5 | 0.00 | 0.00 | 0.00 | 75 | 1008.2 |
| 20260506201356 | 47 | 270 | 1.7 | 3.5 | 0.00 | 0.00 | 0.00 | 75 | 1008.2 |
| 20260506200854 | 47 | 270 | 1.7 | 2.6 | 0.00 | 0.00 | 0.00 | 75 | 1008.2 |
| 20260506200847 | 47 | 270 | 1.7 | 2.6 | 0.00 | 0.00 | 0.00 | 75 | 1008.2 |
| 20260506200346 | 47 | 270 | 1.7 | 4.3 | 0.00 | 0.00 | 0.00 | 76 | 1008.0 |
| 20260506200338 | 47 | 270 | 1.7 | 4.3 | 0.00 | 0.00 | 0.00 | 76 | 1008.0 |
| 20260506195836 | 47 | 270 | 2.6 | 2.6 | 0.00 | 0.00 | 0.00 | 75 | 1008.2 |
| 20260506195830 | 47 | 270 | 2.6 | 2.6 | 0.00 | 0.00 | 0.00 | 75 | 1008.2 |
| 20260506195328 | 47 | 270 | 1.7 | 2.6 | 0.00 | 0.00 | 0.00 | 75 | 1008.1 |
| 20260506195321 | 47 | 270 | 1.7 | 2.6 | 0.00 | 0.00 | 0.00 | 75 | 1008.1 |
| 20260506194310 | 48 | 270 | 2.6 | 3.5 | 0.00 | 0.00 | 0.00 | 74 | 1008.1 |
| 20260506194303 | 48 | 270 | 2.6 | 3.5 | 0.00 | 0.00 | 0.00 | 74 | 1008.1 |
| 20260506193801 | 48 | 270 | 2.6 | 3.5 | 0.00 | 0.00 | 0.00 | 73 | 1008.2 |
| 20260506193754 | 48 | 270 | 2.6 | 3.5 | 0.00 | 0.00 | 0.00 | 73 | 1008.2 |
| 20260506193252 | 49 | 270 | 1.7 | 2.6 | 0.00 | 0.00 | 0.00 | 72 | 1008.3 |
| 20260506193246 | 49 | 270 | 1.7 | 2.6 | 0.00 | 0.00 | 0.00 | 72 | 1008.3 |
| 20260506192737 | 49 | 270 | 1.7 | 2.6 | 0.00 | 0.00 | 0.00 | 72 | 1008.4 |
| 20260506191725 | 49 | 270 | 0.9 | 1.7 | 0.00 | 0.00 | 0.00 | 72 | 1008.3 |
| 20260506191719 | 49 | 270 | 0.9 | 1.7 | 0.00 | 0.00 | 0.00 | 72 | 1008.3 |
| 20260506191210 | 49 | 270 | 1.7 | 2.6 | 0.00 | 0.00 | 0.00 | 72 | 1008.3 |
| 20260506190153 | 50 | 270 | 0.9 | 0.9 | 0.00 | 0.00 | 0.00 | 71 | 1008.1 |
| 20260506185650 | 50 | 270 | 0.0 | 0.9 | 0.00 | 0.00 | 0.00 | 71 | 1008.1 |
| 20260506185644 | 50 | 270 | 0.0 | 0.9 | 0.00 | 0.00 | 0.00 | 71 | 1008.1 |
| 20260506185135 | 50 | 270 | 0.9 | 1.7 | 0.00 | 0.00 | 0.00 | 71 | 1008.1 |
| 20260506184117 | 50 | 270 | 1.7 | 2.6 | 0.00 | 0.00 | 0.00 | 71 | 1008.0 |
| 20260506183615 | 50 | 270 | 1.7 | 3.5 | 0.00 | 0.00 | 0.00 | 71 | 1008.0 |
| 20260506183608 | 50 | 270 | 1.7 | 3.5 | 0.00 | 0.00 | 0.00 | 71 | 1008.0 |
| 20260506183106 | 50 | 270 | 2.6 | 6.1 | 0.00 | 0.00 | 0.00 | 71 | 1007.9 |
| 20260506183100 | 50 | 270 | 2.6 | 6.1 | 0.00 | 0.00 | 0.00 | 71 | 1007.9 |
| 20260506182557 | 50 | 270 | 1.7 | 5.2 | 0.00 | 0.00 | 0.00 | 71 | 1007.6 |
| 20260506182551 | 50 | 270 | 1.7 | 5.2 | 0.00 | 0.00 | 0.00 | 71 | 1007.6 |
| 20260506181624 | 51 | 270 | 3.5 | 5.2 | 0.00 | 0.00 | 0.00 | 69 | 1007.3 |
| 20260506181539 | 51 | 270 | 3.5 | 5.2 | 0.00 | 0.00 | 0.00 | 69 | 1007.3 |
| 20260506181533 | 51 | 270 | 3.5 | 5.2 | 0.00 | 0.00 | 0.00 | 69 | 1007.3 |
| 20260506181024 | 51 | 270 | 3.5 | 4.3 | 0.00 | 0.00 | 0.00 | 69 | 1007.2 |
| 20260506180521 | 51 | 270 | 2.6 | 4.3 | 0.00 | 0.00 | 0.00 | 69 | 1007.3 |
| 20260506180515 | 51 | 270 | 2.6 | 4.3 | 0.00 | 0.00 | 0.00 | 69 | 1007.3 |
| 20260506180013 | 50 | 270 | 2.6 | 5.2 | 0.00 | 0.00 | 0.00 | 69 | 1007.2 |
| 20260506180006 | 50 | 270 | 2.6 | 5.2 | 0.00 | 0.00 | 0.00 | 69 | 1007.2 |
| 20260506175504 | 50 | 270 | 2.6 | 4.3 | 0.00 | 0.00 | 0.00 | 69 | 1007.3 |
| 20260506175457 | 50 | 270 | 2.6 | 4.3 | 0.00 | 0.00 | 0.00 | 69 | 1007.3 |
| 20260506174955 | 50 | 270 | 3.5 | 5.2 | 0.00 | 0.00 | 0.00 | 69 | 1007.3 |
| 20260506174949 | 50 | 270 | 3.5 | 5.2 | 0.00 | 0.00 | 0.00 | 69 | 1007.3 |
| 20260506174440 | 50 | 270 | 2.6 | 4.3 | 0.00 | 0.00 | 0.00 | 69 | 1007.4 |
| 20260506173428 | 50 | 270 | 2.6 | 4.3 | 0.00 | 0.00 | 0.00 | 68 | 1007.5 |
| 20260506173422 | 50 | 270 | 2.6 | 4.3 | 0.00 | 0.00 | 0.00 | 68 | 1007.5 |
| 20260506172919 | 50 | 270 | 1.7 | 4.3 | 0.00 | 0.00 | 0.00 | 68 | 1007.5 |
| 20260506172913 | 50 | 270 | 1.7 | 4.3 | 0.00 | 0.00 | 0.00 | 68 | 1007.5 |
| 20260506172411 | 50 | 270 | 2.6 | 3.5 | 0.00 | 0.00 | 0.00 | 68 | 1007.5 |
| 20260506172404 | 50 | 270 | 2.6 | 3.5 | 0.00 | 0.00 | 0.00 | 68 | 1007.5 |
| 20260506171902 | 50 | 270 | 1.7 | 2.6 | 0.00 | 0.00 | 0.00 | 68 | 1007.3 |
| 20260506171855 | 50 | 270 | 1.7 | 2.6 | 0.00 | 0.00 | 0.00 | 68 | 1007.3 |
| 20260506171420 | 50 | 270 | 0.9 | 1.7 | 0.00 | 0.00 | 0.00 | 68 | 1007.4 |
| 20260506171347 | 50 | 270 | 0.9 | 1.7 | 0.00 | 0.00 | 0.00 | 68 | 1007.4 |
| 20260506170838 | 50 | 270 | 0.9 | 2.6 | 0.00 | 0.00 | 0.00 | 68 | 1007.6 |
| 20260506170329 | 50 | 270 | 1.7 | 3.5 | 0.00 | 0.00 | 0.00 | 68 | 1007.8 |
| 20260506165827 | 51 | 270 | 2.6 | 5.2 | 0.00 | 0.00 | 0.00 | 68 | 1007.8 |
| 20260506165820 | 51 | 270 | 2.6 | 5.2 | 0.00 | 0.00 | 0.00 | 68 | 1007.8 |
| 20260506165311 | 51 | 270 | 1.7 | 2.6 | 0.00 | 0.00 | 0.00 | 67 | 1007.8 |
| 20260506164300 | 51 | 270 | 3.5 | 6.1 | 0.00 | 0.00 | 0.00 | 66 | 1007.5 |
| 20260506164253 | 51 | 270 | 3.5 | 6.1 | 0.00 | 0.00 | 0.00 | 66 | 1007.5 |
| 20260506162733 | 51 | 270 | 4.3 | 7.0 | 0.00 | 0.00 | 0.00 | 65 | 1007.2 |
| 20260506162727 | 51 | 270 | 4.3 | 7.0 | 0.00 | 0.00 | 0.00 | 65 | 1007.2 |
| 20260506162237 | 51 | 270 | 3.5 | 6.1 | 0.00 | 0.00 | 0.00 | 65 | |
| 20260506162218 | 51 | 270 | 3.5 | 6.1 | 0.00 | 0.00 | 0.00 | 65 | 1007.3 |
| 20260506161715 | 51 | 270 | 3.5 | 5.2 | 0.00 | 0.00 | 0.00 | 64 | 1007.4 |
| 20260506161709 | 51 | 270 | 3.5 | 5.2 | 0.00 | 0.00 | 0.00 | 64 | 1007.4 |
| 20260506161206 | 51 | 270 | 2.6 | 4.3 | 0.00 | 0.00 | 0.00 | 64 | 1007.6 |
| 20260506161200 | 51 | 270 | 2.6 | 4.3 | 0.00 | 0.00 | 0.00 | 64 | 1007.6 |
| 20260506160651 | 52 | 270 | 1.7 | 4.3 | 0.00 | 0.00 | 0.00 | 63 | 1007.7 |
| 20260506160142 | 52 | 270 | 1.7 | 3.5 | 0.00 | 0.00 | 0.00 | 63 | 1007.8 |
| 20260506155733 | 53 | 270 | 0.9 | 1.7 | 0.00 | 0.00 | 0.00 | 62 | 1008.0 |
| 20260506155633 | 53 | 270 | 0.9 | 1.7 | 0.00 | 0.00 | 0.00 | 62 | 1008.0 |
| 20260506155131 | 53 | 270 | 0.9 | 0.9 | 0.00 | 0.00 | 0.00 | 62 | 1008.0 |
| 20260506155124 | 53 | 270 | 0.9 | 0.9 | 0.00 | 0.00 | 0.00 | 62 | 1008.0 |
| 20260506154616 | 54 | 270 | 0.0 | 0.9 | 0.00 | 0.00 | 0.00 | 61 | 1008.1 |
| 20260506154113 | 56 | 270 | 2.6 | 4.3 | 0.00 | 0.00 | 0.00 | 60 | 1008.1 |
| 20260506154107 | 56 | 270 | 2.6 | 4.3 | 0.00 | 0.00 | 0.00 | 60 | 1008.1 |
| 20260506153558 | 57 | 270 | 3.5 | 6.1 | 0.00 | 0.00 | 0.00 | 60 | 1008.3 |
| 20260506153048 | 58 | 270 | 1.7 | 2.6 | 0.00 | 0.00 | 0.00 | 60 | 1008.3 |
| 20260506152539 | 58 | 270 | 0.9 | 1.7 | 0.00 | 0.00 | 0.00 | 60 | 1008.3 |
| 20260506152030 | 58 | 270 | 0.9 | 2.6 | 0.00 | 0.00 | 0.00 | 60 | 1008.4 |
| 20260506151018 | 57 | 270 | 0.9 | 2.6 | 0.00 | 0.00 | 0.00 | 61 | 1008.5 |
| 20260506151012 | 57 | 270 | 0.9 | 2.6 | 0.00 | 0.00 | 0.00 | 61 | 1008.5 |
| 20260506150509 | 57 | 270 | 0.9 | 2.6 | 0.00 | 0.00 | 0.00 | 61 | 1008.6 |
| 20260506150503 | 57 | 270 | 0.9 | 2.6 | 0.00 | 0.00 | 0.00 | 61 | 1008.6 |
| 20260506145954 | 57 | 270 | 2.6 | 3.5 | 0.00 | 0.00 | 0.00 | 61 | 1008.6 |
| 20260506145445 | 57 | 270 | 1.7 | 3.5 | 0.00 | 0.00 | 0.00 | 60 | 1008.6 |
| 20260506145022 | 57 | 270 | 1.7 | 3.5 | 0.00 | 0.00 | 0.00 | 60 | 1008.6 |
| 20260506144936 | 57 | 270 | 1.7 | 3.5 | 0.00 | 0.00 | 0.00 | 60 | 1008.6 |
| 20260506144428 | 57 | 270 | 1.7 | 2.6 | 0.00 | 0.00 | 0.00 | 60 | 1008.7 |
| 20260506143415 | 58 | 270 | 1.7 | 3.5 | 0.00 | 0.00 | 0.00 | 60 | 1008.8 |
| 20260506143409 | 58 | 270 | 1.7 | 3.5 | 0.00 | 0.00 | 0.00 | 60 | 1008.8 |
| 20260506142906 | 58 | 270 | 1.7 | 3.5 | 0.00 | 0.00 | 0.00 | 59 | 1008.9 |
| 20260506142900 | 58 | 270 | 1.7 | 3.5 | 0.00 | 0.00 | 0.00 | 59 | 1008.9 |
| 20260506142350 | 59 | 270 | 1.7 | 3.5 | 0.00 | 0.00 | 0.00 | 59 | 1008.8 |
| 20260506141841 | 60 | 270 | 1.7 | 2.6 | 0.00 | 0.00 | 0.00 | 59 | 1008.8 |
| 20260506141332 | 60 | 270 | 1.7 | 2.6 | 0.00 | 0.00 | 0.00 | 59 | 1008.8 |
| 20260506140823 | 60 | 270 | 0.9 | 1.7 | 0.00 | 0.00 | 0.00 | 59 | 1008.9 |
| 20260506135811 | 61 | 270 | 1.7 | 2.6 | 0.00 | 0.00 | 0.00 | 58 | 1009.0 |
| 20260506135805 | 61 | 270 | 1.7 | 2.6 | 0.00 | 0.00 | 0.00 | 58 | 1009.0 |
| 20260506135305 | 62 | 270 | 2.6 | 3.5 | 0.00 | 0.00 | 0.00 | 58 | 1009.0 |
| 20260506135255 | 62 | 270 | 2.6 | 3.5 | 0.00 | 0.00 | 0.00 | 58 | 1009.0 |
| 20260506134753 | 63 | 270 | 1.7 | 3.5 | 0.00 | 0.00 | 0.00 | 58 | 1009.1 |
| 20260506134746 | 63 | 270 | 1.7 | 3.5 | 0.00 | 0.00 | 0.00 | 58 | 1009.1 |
| 20260506134243 | 63 | 270 | 2.6 | 5.2 | 0.00 | 0.00 | 0.00 | 58 | 1009.2 |
| 20260506134237 | 63 | 270 | 2.6 | 5.2 | 0.00 | 0.00 | 0.00 | 58 | 1009.2 |
| 20260506133731 | 64 | 270 | 1.7 | 0.0 | 0.00 | 0.00 | 0.00 | 58 | 1009.1 |
| 20260506133728 | 64 | 270 | 1.7 | 3.5 | 0.00 | 0.00 | 0.00 | 58 | 1009.1 |
| 20260506133225 | 64 | 270 | 2.6 | 4.3 | 0.00 | 0.00 | 0.00 | 58 | 1009.1 |
| 20260506133218 | 64 | 270 | 2.6 | 4.3 | 0.00 | 0.00 | 0.00 | 58 | 1009.1 |
| 20260506132709 | 63 | 270 | 2.6 | 3.5 | 0.00 | 0.00 | 0.00 | 59 | 1009.2 |
| 20260506132206 | 63 | 270 | 1.7 | 3.5 | 0.00 | 0.00 | 0.00 | 59 | 1009.3 |
| 20260506132200 | 63 | 270 | 1.7 | 3.5 | 0.00 | 0.00 | 0.00 | 59 | 1009.3 |
| 20260506131657 | 62 | 270 | 1.7 | 2.6 | 0.00 | 0.00 | 0.00 | 59 | 1009.4 |
| 20260506131650 | 62 | 270 | 1.7 | 2.6 | 0.00 | 0.00 | 0.00 | 59 | 1009.4 |
| 20260506131148 | 62 | 270 | 2.6 | 4.3 | 0.00 | 0.00 | 0.00 | 59 | 1009.4 |
| 20260506131141 | 62 | 270 | 2.6 | 4.3 | 0.00 | 0.00 | 0.00 | 59 | 1009.4 |
| 20260506130632 | 62 | 270 | 1.7 | 3.5 | 0.00 | 0.00 | 0.00 | 59 | 1009.5 |
| 20260506130129 | 62 | 270 | 1.7 | 2.6 | 0.00 | 0.00 | 0.00 | 59 | 1009.5 |
| 20260506130123 | 62 | 270 | 1.7 | 2.6 | 0.00 | 0.00 | 0.00 | 59 | 1009.5 |
| 20260506125651 | 62 | 270 | 1.7 | 3.5 | 0.00 | 0.00 | 0.00 | 59 | 1009.5 |
| 20260506125613 | 62 | 270 | 1.7 | 3.5 | 0.00 | 0.00 | 0.00 | 59 | 1009.5 |
| 20260506125111 | 62 | 270 | 1.7 | 3.5 | 0.00 | 0.00 | 0.00 | 59 | 1009.6 |
| 20260506125104 | 62 | 270 | 1.7 | 3.5 | 0.00 | 0.00 | 0.00 | 59 | 1009.6 |
| 20260506124601 | 63 | 270 | 2.6 | 5.2 | 0.00 | 0.00 | 0.00 | 59 | 1009.5 |
| 20260506124555 | 63 | 270 | 2.6 | 5.2 | 0.00 | 0.00 | 0.00 | 59 | 1009.5 |
| 20260506124052 | 62 | 270 | 1.7 | 3.5 | 0.00 | 0.00 | 0.00 | 60 | 1009.5 |
| 20260506124046 | 62 | 270 | 1.7 | 3.5 | 0.00 | 0.00 | 0.00 | 60 | 1009.5 |
| 20260506123543 | 62 | 270 | 3.5 | 7.0 | 0.00 | 0.00 | 0.00 | 60 | 1009.6 |
| 20260506123536 | 62 | 270 | 3.5 | 7.0 | 0.00 | 0.00 | 0.00 | 60 | 1009.6 |
| 20260506123034 | 63 | 270 | 1.7 | 3.5 | 0.00 | 0.00 | 0.00 | 60 | 1009.6 |
| 20260506123027 | 63 | 270 | 1.7 | 3.5 | 0.00 | 0.00 | 0.00 | 60 | 1009.6 |
| 20260506122518 | 63 | 270 | 1.7 | 4.3 | 0.00 | 0.00 | 0.00 | 60 | 1009.6 |
| 20260506122015 | 62 | 270 | 2.6 | 3.5 | 0.00 | 0.00 | 0.00 | 60 | 1009.6 |
| 20260506122009 | 62 | 270 | 2.6 | 3.5 | 0.00 | 0.00 | 0.00 | 60 | 1009.6 |
| 20260506121504 | 62 | 270 | 2.6 | 4.3 | 0.00 | 0.00 | 0.00 | 60 | 1009.6 |
| 20260506121500 | 62 | 270 | 2.6 | 4.3 | 0.00 | 0.00 | 0.00 | 60 | 1009.6 |
| 20260506120957 | 63 | 270 | 1.7 | 2.6 | 0.00 | 0.00 | 0.00 | 60 | 1009.6 |
| 20260506120950 | 63 | 270 | 1.7 | 2.6 | 0.00 | 0.00 | 0.00 | 60 | 1009.6 |
| 20260506120448 | 63 | 270 | 1.7 | 3.5 | 0.00 | 0.00 | 0.00 | 60 | 1009.6 |
| 20260506120441 | 63 | 270 | 1.7 | 3.5 | 0.00 | 0.00 | 0.00 | 60 | 1009.6 |
| 20260506115938 | 63 | 270 | 2.6 | 4.3 | 0.00 | 0.00 | 0.00 | 61 | 1009.7 |
| 20260506115932 | 63 | 270 | 2.6 | 4.3 | 0.00 | 0.00 | 0.00 | 61 | 1009.7 |
| 20260506115423 | 63 | 270 | 2.6 | 6.1 | 0.00 | 0.00 | 0.00 | 62 | 1009.6 |
| 20260506114913 | 62 | 270 | 2.6 | 4.3 | 0.00 | 0.00 | 0.00 | 62 | 1009.6 |
| 20260506114404 | 62 | 270 | 3.5 | 7.0 | 0.00 | 0.00 | 0.00 | 61 | 1009.6 |
| 20260506113953 | 62 | 270 | 1.7 | 2.6 | 0.00 | 0.00 | 0.00 | 62 | 1009.7 |
| 20260506113855 | 62 | 270 | 1.7 | 2.6 | 0.00 | 0.00 | 0.00 | 62 | 1009.7 |
| 20260506113345 | 62 | 270 | 2.6 | 4.3 | 0.00 | 0.00 | 0.00 | 63 | 1009.5 |
| 20260506112327 | 61 | 270 | 1.7 | 2.6 | 0.00 | 0.00 | 0.00 | 64 | 1009.5 |
| 20260506111824 | 60 | 270 | 2.6 | 4.3 | 0.00 | 0.00 | 0.00 | 65 | 1009.5 |
| 20260506111818 | 60 | 270 | 2.6 | 4.3 | 0.00 | 0.00 | 0.00 | 65 | 1009.5 |
| 20260506111309 | 59 | 270 | 2.6 | 4.3 | 0.00 | 0.00 | 0.00 | 65 | 1009.6 |
| 20260506110759 | 59 | 270 | 2.6 | 4.3 | 0.00 | 0.00 | 0.00 | 65 | 1009.5 |
| 20260506110257 | 58 | 270 | 2.6 | 5.2 | 0.00 | 0.00 | 0.00 | 65 | 1009.5 |
| 20260506110250 | 58 | 270 | 2.6 | 5.2 | 0.00 | 0.00 | 0.00 | 65 | 1009.5 |
| 20260506105748 | 58 | 270 | 2.6 | 5.2 | 0.00 | 0.00 | 0.00 | 65 | 1009.6 |
| 20260506105741 | 58 | 270 | 2.6 | 5.2 | 0.00 | 0.00 | 0.00 | 65 | 1009.6 |
| 20260506105232 | 58 | 270 | 2.6 | 5.2 | 0.00 | 0.00 | 0.00 | 66 | 1009.7 |
| 20260506104214 | 58 | 270 | 2.6 | 6.1 | 0.00 | 0.00 | 0.00 | 66 | 1009.7 |
| 20260506103711 | 58 | 270 | 2.6 | 3.5 | 0.00 | 0.00 | 0.00 | 67 | 1009.6 |
| 20260506103705 | 58 | 270 | 2.6 | 3.5 | 0.00 | 0.00 | 0.00 | 67 | 1009.6 |
| 20260506103202 | 58 | 270 | 2.6 | 6.1 | 0.00 | 0.00 | 0.00 | 67 | 1009.5 |
| 20260506103156 | 58 | 270 | 2.6 | 6.1 | 0.00 | 0.00 | 0.00 | 67 | 1009.5 |
| 20260506102137 | 56 | 270 | 2.6 | 4.3 | 0.00 | 0.00 | 0.00 | 69 | 1009.5 |
| 20260506101635 | 55 | 270 | 2.6 | 4.3 | 0.00 | 0.00 | 0.00 | 69 | 1009.6 |
| 20260506101628 | 55 | 270 | 2.6 | 4.3 | 0.00 | 0.00 | 0.00 | 69 | 1009.6 |
| 20260506100616 | 56 | 270 | 1.7 | 4.3 | 0.00 | 0.00 | 0.00 | 68 | 1009.5 |
| 20260506100610 | 56 | 270 | 1.7 | 4.3 | 0.00 | 0.00 | 0.00 | 68 | 1009.5 |
| 20260506100108 | 56 | 270 | 2.6 | 5.2 | 0.00 | 0.00 | 0.00 | 68 | 1009.5 |
| 20260506100101 | 56 | 270 | 2.6 | 5.2 | 0.00 | 0.00 | 0.00 | 68 | 1009.5 |
| 20260506095558 | 57 | 270 | 2.6 | 6.1 | 0.00 | 0.00 | 0.00 | 70 | 1009.5 |
| 20260506095552 | 57 | 270 | 2.6 | 6.1 | 0.00 | 0.00 | 0.00 | 70 | 1009.5 |
| 20260506095057 | 56 | 270 | 4.3 | 6.1 | 0.00 | 0.00 | 0.00 | 71 | 1009.6 |
| 20260506095043 | 56 | 270 | 4.3 | 6.1 | 0.00 | 0.00 | 0.00 | 71 | 1009.6 |
| 20260506094540 | 55 | 270 | 2.6 | 7.0 | 0.00 | 0.00 | 0.00 | 71 | 1009.4 |
| 20260506094534 | 55 | 270 | 2.6 | 7.0 | 0.00 | 0.00 | 0.00 | 71 | 1009.4 |
| 20260506092458 | 53 | 270 | 2.6 | 3.5 | 0.00 | 0.00 | 0.00 | 73 | 1009.3 |
| 20260506091949 | 52 | 270 | 2.6 | 5.2 | 0.00 | 0.00 | 0.00 | 73 | 1009.3 |
| 20260506091440 | 51 | 270 | 2.6 | 4.3 | 0.00 | 0.00 | 0.00 | 73 | 1009.3 |
| 20260506091021 | 51 | 270 | 1.7 | 4.3 | 0.00 | 0.00 | 0.00 | 73 | 1009.3 |
| 20260506090938 | 51 | 270 | 1.7 | 4.3 | 0.00 | 0.00 | 0.00 | 73 | 1009.3 |
| 20260506090931 | 51 | 270 | 1.7 | 4.3 | 0.00 | 0.00 | 0.00 | 73 | 1009.3 |
| 20260506090430 | 51 | 270 | 1.7 | 3.5 | 0.00 | 0.00 | 0.00 | 73 | 1009.1 |
| 20260506090422 | 51 | 270 | 1.7 | 3.5 | 0.00 | 0.00 | 0.00 | 73 | 1009.1 |
| 20260506085913 | 51 | 270 | 3.5 | 5.2 | 0.00 | 0.00 | 0.00 | 73 | 1009.2 |
| 20260506085405 | 51 | 270 | 2.6 | 4.3 | 0.00 | 0.00 | 0.00 | 73 | 1009.2 |
| 20260506083837 | 50 | 270 | 2.6 | 5.2 | 0.00 | 0.00 | 0.00 | 73 | 1009.0 |
| 20260506082819 | 50 | 270 | 2.6 | 3.5 | 0.00 | 0.00 | 0.00 | 73 | 1008.8 |
| 20260506081808 | 50 | 270 | 2.6 | 6.1 | 0.00 | 0.00 | 0.00 | 73 | 1008.9 |
| 20260506081802 | 50 | 270 | 2.6 | 6.1 | 0.00 | 0.00 | 0.00 | 73 | 1008.9 |
| 20260506081259 | 50 | 270 | 1.7 | 3.5 | 0.00 | 0.00 | 0.00 | 73 | |
| 20260506081253 | 50 | 270 | 1.7 | 3.5 | 0.00 | 0.00 | 0.00 | 73 | 1008.9 |
| 20260506080750 | 50 | 270 | 2.6 | 5.2 | 0.00 | 0.00 | 0.00 | 73 | 1009.0 |
| 20260506080744 | 50 | 270 | 2.6 | 5.2 | 0.00 | 0.00 | 0.00 | 73 | 1009.0 |
| 20260506080241 | 50 | 270 | 1.7 | 3.5 | 0.00 | 0.00 | 0.00 | 73 | 1008.9 |
| 20260506080235 | 50 | 270 | 1.7 | 3.5 | 0.00 | 0.00 | 0.00 | 73 | 1008.9 |
| 20260506072633 | 48 | 270 | 2.6 | 4.3 | 0.00 | 0.00 | 0.00 | 73 | 1008.6 |
| 20260506072124 | 48 | 270 | 2.6 | 6.1 | 0.00 | 0.00 | 0.00 | 73 | 1008.5 |
| 20260506071615 | 48 | 270 | 3.5 | 5.2 | 0.00 | 0.00 | 0.00 | 73 | 1008.5 |
| 20260506071106 | 48 | 270 | 3.5 | 5.2 | 0.00 | 0.00 | 0.00 | 73 | 1008.4 |
| 20260506070604 | 48 | 270 | 3.5 | 5.2 | 0.00 | 0.00 | 0.00 | 73 | 1008.3 |
| 20260506070557 | 48 | 270 | 3.5 | 5.2 | 0.00 | 0.00 | 0.00 | 73 | 1008.3 |
| 20260506062447 | 48 | 270 | 3.5 | 6.1 | 0.00 | 0.00 | 0.00 | 72 | 1008.1 |
| 20260506061938 | 48 | 270 | 2.6 | 4.3 | 0.00 | 0.00 | 0.00 | 72 | 1008.1 |
| 20260506061429 | 48 | 270 | 3.5 | 6.1 | 0.00 | 0.00 | 0.00 | 72 | 1008.1 |
| 20260506060411 | 48 | 270 | 2.6 | 5.2 | 0.00 | 0.00 | 0.00 | 71 | 1008.1 |
| 20260506051243 | 48 | 270 | 3.5 | 5.2 | 0.00 | 0.00 | 0.00 | 70 | 1007.8 |
| 20260506050740 | 48 | 270 | 3.5 | 5.2 | 0.00 | 0.00 | 0.00 | 69 | 1007.8 |
| 20260506050734 | 48 | 270 | 3.5 | 5.2 | 0.00 | 0.00 | 0.00 | 69 | 1007.8 |
| 20260506050225 | 48 | 270 | 3.5 | 6.1 | 0.00 | 0.00 | 0.00 | 69 | 1007.8 |
| 20260506044658 | 47 | 270 | 2.6 | 5.2 | 0.00 | 0.00 | 0.00 | 68 | 1007.7 |
| 20260506044156 | 47 | 270 | 2.6 | 4.3 | 0.00 | 0.00 | 0.00 | 68 | 1007.6 |
| 20260506044149 | 47 | 270 | 2.6 | 4.3 | 0.00 | 0.00 | 0.00 | 68 | 1007.6 |
| 20260506043641 | 47 | 270 | 2.6 | 4.3 | 0.00 | 0.00 | 0.00 | 67 | 1007.6 |
| 20260506043132 | 47 | 270 | 3.5 | 7.8 | 0.00 | 0.00 | 0.00 | 67 | 1007.5 |
| 20260506042623 | 47 | 270 | 3.5 | 5.2 | 0.00 | 0.00 | 0.00 | 66 | 1007.4 |
| 20260506042114 | 47 | 270 | 2.6 | 4.3 | 0.00 | 0.00 | 0.00 | 66 | 1007.3 |
| 20260506041605 | 47 | 270 | 2.6 | 6.1 | 0.00 | 0.00 | 0.00 | 65 | 1007.3 |
| 20260506041056 | 46 | 270 | 2.6 | 5.2 | 0.00 | 0.00 | 0.00 | 65 | 1007.4 |
| 20260506040548 | 46 | 270 | 2.6 | 3.5 | 0.00 | 0.00 | 0.00 | 65 | 1007.4 |
| 20260506040039 | 46 | 270 | 2.6 | 5.2 | 0.00 | 0.00 | 0.00 | 65 | 1007.3 |
| 20260506035530 | 46 | 270 | 2.6 | 4.3 | 0.00 | 0.00 | 0.00 | 64 | 1007.4 |
| 20260506035021 | 46 | 270 | 2.6 | 4.3 | 0.00 | 0.00 | 0.00 | 64 | 1007.3 |
| 20260506034512 | 46 | 270 | 2.6 | 5.2 | 0.00 | 0.00 | 0.00 | 63 | 1007.4 |
| 20260506034004 | 46 | 270 | 2.6 | 3.5 | 0.00 | 0.00 | 0.00 | 63 | 1007.4 |
| 20260506033455 | 46 | 270 | 1.7 | 3.5 | 0.00 | 0.00 | 0.00 | 63 | 1007.4 |
| 20260506032953 | 46 | 270 | 2.6 | 4.3 | 0.00 | 0.00 | 0.00 | 63 | 100.7 |
| 20260506032946 | 46 | 270 | 2.6 | 4.3 | 0.00 | 0.00 | 0.00 | 63 | 1007.4 |
| 20260506032437 | 45 | 270 | 1.7 | 3.5 | 0.00 | 0.00 | 0.00 | 62 | 1007.5 |
| 20260506031935 | 45 | 270 | 1.7 | 3.5 | 0.00 | 0.00 | 0.00 | 62 | 1007.5 |
| 20260506031928 | 45 | 270 | 1.7 | 3.5 | 0.00 | 0.00 | 0.00 | 62 | 1007.5 |
| 20260506030917 | 46 | 270 | 1.7 | 3.5 | 0.00 | 0.00 | 0.00 | 61 | 1007.4 |
| 20260506030911 | 46 | 270 | 1.7 | 3.5 | 0.00 | 0.00 | 0.00 | 61 | 1007.4 |
| 20260506030402 | 46 | 270 | 1.7 | 2.6 | 0.00 | 0.00 | 0.00 | 61 | 1007.2 |
| 20260506025853 | 46 | 270 | 1.7 | 2.6 | 0.00 | 0.00 | 0.00 | 61 | 1007.3 |
| 20260506025344 | 46 | 270 | 1.7 | 3.5 | 0.00 | 0.00 | 0.00 | 61 | 1007.3 |
| 20260506024842 | 47 | 270 | 2.6 | 4.3 | 0.00 | 0.00 | 0.00 | 60 | 1007.3 |
| 20260506024836 | 47 | 270 | 2.6 | 4.3 | 0.00 | 0.00 | 0.00 | 60 | 1007.3 |
| 20260506024327 | 47 | 270 | 1.7 | 2.6 | 0.00 | 0.00 | 0.00 | 60 | 1007.2 |
| 20260506023818 | 47 | 270 | 1.7 | 3.5 | 0.00 | 0.00 | 0.00 | 60 | 1007.2 |
| 20260506023309 | 47 | 270 | 1.7 | 2.6 | 0.00 | 0.00 | 0.00 | 60 | 1007.2 |
| 20260506022800 | 47 | 270 | 1.7 | 3.5 | 0.00 | 0.00 | 0.00 | 60 | 1007.3 |
| 20260506022251 | 47 | 270 | 2.6 | 3.5 | 0.00 | 0.00 | 0.00 | 60 | 1007.2 |
| 20260506021743 | 47 | 270 | 1.7 | 4.3 | 0.00 | 0.00 | 0.00 | 59 | 1007.1 |